Le nostre stazioni meteo in Italia

Pubblicità
Il mio iltempo24.it
Cozzo Spadaro, Italia (16480): Temperatura & dewpoint: 17.01.2017 19:00:00 - 23.01.2017 19:00:00 (CET)Cozzo Spadaro, Italia (16480): velocità del vento: 17.01.2017 19:00:00 - 23.01.2017 19:00:00 (CET)Cozzo Spadaro, Italia (16480): direzione del vento: 17.01.2017 19:00:00 - 23.01.2017 19:00:00 (CET)Cozzo Spadaro, Italia (16480): reduced air pressure: 17.01.2017 19:00:00 - 23.01.2017 19:00:00 (CET)Cozzo Spadaro, Italia (16480): visibility: 17.01.2017 19:00:00 - 23.01.2017 19:00:00 (CET)Cozzo Spadaro, Italia (16480): ore di luce: 17.01.2017 19:00:00 - 23.01.2017 19:00:00 (CET)
Data & Tempo tt [°C] td [°C] ff [km/h] ff [kn] dd ppp [hPa] vv [km] sd [min]
23.01.2017 19:00:00 11,6 8,3 13 7 ONO 1009,3 10 -
23.01.2017 18:00:00 12,2 8,9 11 6 ONO 1009,1 10 -
23.01.2017 17:00:00 13,6 9,8 13 7 O 1009,2 10 18
23.01.2017 16:00:00 15,2 11,0 9 5 O 1009,2 10 60
23.01.2017 15:00:00 15,0 10,8 11 6 O 1010,1 10 54
23.01.2017 14:00:00 14,2 10,8 4 2 O 1010,7 10 18
23.01.2017 13:00:00 15,4 11,6 9 5 SSE 1011,4 8 48
23.01.2017 12:00:00 15,2 11,6 5 3 ESE 1012,0 8 60
23.01.2017 11:00:00 14,4 11,2 8 4 NNE 1012,1 8 60
23.01.2017 10:00:00 13,2 10,0 8 4 N 1012,1 7 42
23.01.2017 09:00:00 11,6 8,5 13 7 NNE 1012,3 7 0
23.01.2017 08:00:00 11,2 8,1 9 5 NNE 1012,2 8 0
23.01.2017 07:00:00 10,8 7,9 4 2 E 1012,2 12 0
23.01.2017 06:00:00 - - - - - - - -
23.01.2017 05:00:00 - - - - - - - -
23.01.2017 04:00:00 - - - - - - - -
23.01.2017 03:00:00 - - - - - - - -
23.01.2017 02:00:00 - - - - - - - -
23.01.2017 01:00:00 - - - - - - - -
23.01.2017 00:00:00 - - - - - - - -
22.01.2017 23:00:00 - - - - - - - -
22.01.2017 22:00:00 - - - - - - - -
22.01.2017 21:00:00 - - - - - - - -
22.01.2017 20:00:00 - - - - - - - -
22.01.2017 19:00:00 - - - - - - - -
22.01.2017 18:00:00 - - - - - - - -
22.01.2017 17:00:00 - - - - - - - -
22.01.2017 16:00:00 - - - - - - - -
22.01.2017 15:00:00 - - - - - - - -
22.01.2017 14:00:00 - - - - - - - -
22.01.2017 13:00:00 - - - - - - - -
22.01.2017 12:00:00 - - - - - - - -
22.01.2017 11:00:00 - - - - - - - -
22.01.2017 10:00:00 - - - - - - - -
22.01.2017 09:00:00 - - - - - - - -
22.01.2017 08:00:00 - - - - - - - -
22.01.2017 07:00:00 - - - - - - - -
22.01.2017 06:00:00 - - - - - - - -
22.01.2017 05:00:00 - - - - - - - -
22.01.2017 04:00:00 - - - - - - - -
22.01.2017 03:00:00 - - - - - - - -
22.01.2017 02:00:00 - - - - - - - -
22.01.2017 01:00:00 - - - - - - - -
22.01.2017 00:00:00 - - - - - - - -
21.01.2017 23:00:00 - - - - - - - -
21.01.2017 22:00:00 - - - - - - - -
21.01.2017 21:00:00 - - - - - - - -
21.01.2017 20:00:00 - - - - - - - -
21.01.2017 19:00:00 13,8 10,8 29 16 SE 1019,2 8 -
21.01.2017 18:00:00 13,8 10,8 28 15 SE 1019,2 8 0
21.01.2017 17:00:00 14,0 11,2 28 15 SE 1019,2 8 0
21.01.2017 16:00:00 14,2 11,2 26 14 SE 1019,1 10 0
21.01.2017 15:00:00 14,8 11,4 24 13 SE 1019,2 10 42
21.01.2017 14:00:00 15,0 11,6 28 15 SE 1019,2 10 18
21.01.2017 13:00:00 15,0 11,6 26 14 SE 1020,1 10 30
21.01.2017 12:00:00 15,0 11,2 28 15 SE 1020,4 10 60
21.01.2017 11:00:00 15,0 11,2 22 12 SE 1021,3 10 60
21.01.2017 10:00:00 14,8 11,0 24 13 SE 1021,2 10 24
21.01.2017 09:00:00 14,0 10,4 26 14 SE 1021,0 10 0
21.01.2017 08:00:00 13,2 9,7 26 14 SE 1020,4 10 0
21.01.2017 07:00:00 13,2 9,7 26 14 SE 1020,3 10 0
21.01.2017 06:00:00 - - - - - - - -
21.01.2017 05:00:00 - - - - - - - -
21.01.2017 04:00:00 - - - - - - - -
21.01.2017 03:00:00 - - - - - - - -
21.01.2017 02:00:00 - - - - - - - -
21.01.2017 01:00:00 - - - - - - - -
21.01.2017 00:00:00 - - - - - - - -
20.01.2017 23:00:00 - - - - - - - -
20.01.2017 22:00:00 - - - - - - - -
20.01.2017 21:00:00 - - - - - - - -
20.01.2017 20:00:00 - - - - - - - -
20.01.2017 19:00:00 13,0 9,3 26 14 E 1021,9 20 -
20.01.2017 18:00:00 13,0 9,4 22 12 E 1021,9 20 -
20.01.2017 17:00:00 13,4 9,3 22 12 ESE 1022,0 25 0
20.01.2017 16:00:00 13,6 9,1 22 12 ESE 1022,0 30 12
20.01.2017 15:00:00 14,2 9,0 22 12 E 1022,1 30 60
20.01.2017 14:00:00 14,6 9,2 21 11 E 1022,2 30 60
20.01.2017 13:00:00 14,6 9,0 21 11 ESE 1023,1 30 60
20.01.2017 12:00:00 14,4 9,0 21 11 ESE 1023,5 30 60
20.01.2017 11:00:00 14,0 9,4 18 10 SE 1023,5 30 60
20.01.2017 10:00:00 13,4 8,7 21 11 ESE 1023,2 30 54
20.01.2017 09:00:00 12,4 9,0 18 10 ENE 1022,9 30 60
20.01.2017 08:00:00 11,4 8,4 15 8 ENE 1022,4 25 12
20.01.2017 07:00:00 9,0 6,4 9 5 N 1022,3 25 0
20.01.2017 06:00:00 - - - - - - - -
20.01.2017 05:00:00 - - - - - - - -
20.01.2017 04:00:00 - - - - - - - -
20.01.2017 03:00:00 - - - - - - - -
20.01.2017 02:00:00 - - - - - - - -
20.01.2017 01:00:00 - - - - - - - -
20.01.2017 00:00:00 - - - - - - - -
19.01.2017 23:00:00 - - - - - - - -
19.01.2017 22:00:00 - - - - - - - -
19.01.2017 21:00:00 - - - - - - - -
19.01.2017 20:00:00 - - - - - - - -
19.01.2017 19:00:00 10,0 6,9 5 3 ONO 1020,4 20 -
19.01.2017 18:00:00 10,2 7,1 5 3 ONO 1019,5 20 -
19.01.2017 17:00:00 12,0 8,3 4 2 O 1019,2 25 42
19.01.2017 16:00:00 13,0 8,3 9 5 O 1019,1 30 60
19.01.2017 15:00:00 13,4 8,2 13 7 O 1019,0 30 60
19.01.2017 14:00:00 13,8 7,6 13 7 O 1019,0 30 60
19.01.2017 13:00:00 14,0 8,2 11 6 ONO 1019,1 30 60
19.01.2017 12:00:00 13,4 8,5 8 4 O 1019,3 30 60
19.01.2017 11:00:00 12,8 8,7 4 2 O 1019,1 30 48
19.01.2017 10:00:00 11,6 6,9 4 2 NNO 1019,0 30 30
19.01.2017 09:00:00 11,0 7,3 4 2 OSO 1017,5 25 12
19.01.2017 08:00:00 8,2 5,3 4 2 NO 1017,3 20 0
19.01.2017 07:00:00 8,6 5,7 8 4 NO 1016,3 12 0
19.01.2017 06:00:00 - - - - - - - -
19.01.2017 05:00:00 - - - - - - - -
19.01.2017 04:00:00 - - - - - - - -
19.01.2017 03:00:00 - - - - - - - -
19.01.2017 02:00:00 - - - - - - - -
19.01.2017 01:00:00 - 4,2 - - N 1036,2 0,9 -
19.01.2017 00:00:00 - - - - - - - -
18.01.2017 23:00:00 - - - - - - - -
18.01.2017 22:00:00 - - - - - - - -
18.01.2017 21:00:00 - - - - - - - -
18.01.2017 20:00:00 - - - - - - - -
18.01.2017 19:00:00 8,0 5,3 8 4 ONO 1010,3 12 -
18.01.2017 18:00:00 7,6 5,1 4 2 O 1009,3 12 0
18.01.2017 17:00:00 7,8 5,1 5 3 O 1008,8 12 0
18.01.2017 16:00:00 9,0 6,6 16 9 NO 1008,3 6 0
18.01.2017 15:00:00 8,2 5,5 9 5 NO 1007,8 5 0
18.01.2017 14:00:00 8,8 5,0 18 10 NO 1007,3 5 0
18.01.2017 13:00:00 12,0 8,5 21 11 O 1006,5 25 0
18.01.2017 12:00:00 12,0 5,2 15 8 OSO 1006,3 20 0
18.01.2017 11:00:00 12,0 5,2 16 9 O 1007,0 25 60
18.01.2017 10:00:00 9,8 5,6 2 1 ONO 1006,7 25 48
18.01.2017 09:00:00 7,6 4,2 2 1 N 1006,2 25 36
18.01.2017 08:00:00 6,0 3,3 9 5 N 1005,4 20 0
18.01.2017 07:00:00 6,0 3,8 8 4 N 1005,2 20 0
18.01.2017 06:00:00 - - - - - - - -
18.01.2017 05:00:00 - - - - - - - -
18.01.2017 04:00:00 - - - - - - - -
18.01.2017 03:00:00 - - - - - - - -
18.01.2017 02:00:00 - - - - - - - -
18.01.2017 01:00:00 - - - - - - - -
18.01.2017 00:00:00 - - - - - - - -
17.01.2017 23:00:00 - - - - - - - -
17.01.2017 22:00:00 - - - - - - - -
17.01.2017 21:00:00 - - - - - - - -
17.01.2017 20:00:00 - - - - - - - -
17.01.2017 19:00:00 7,6 5,1 15 8 OSO 1003,2 10 -

tt = Temperatura
td = dewpoint
ff = velocità del vento
dd = direzione del vento
ppp = reduced air pressure
vv = visibility
sd = ore di luce

Stazioni seguenti

WeatherPro
AMSI
MeteoEarth